CET,Max TemperatureF,Mean TemperatureF,Min TemperatureF,Max Dew PointF,MeanDew PointF,Min DewpointF,Max Humidity, Mean Humidity, Min Humidity, Max Sea Level PressureIn, Mean Sea Level PressureIn, Min Sea Level PressureIn, Max VisibilityMiles, Mean VisibilityMiles, Min VisibilityMiles, Max Wind SpeedMPH, Mean Wind SpeedMPH, Max Gust SpeedMPH,PrecipitationIn, CloudCover, Events, WindDirDegrees
2012-11-1,75,68,62,70,60,57,88,73,50,29.86,29.71,29.56,12,7,5,17,11,,0.00,2,,308
2012-11-2,75,68,60,63,59,55,88,74,58,30.06,29.96,29.86,16,7,6,16,7,,0.00,2,,305
2012-11-3,73,66,60,59,58,55,88,73,51,30.13,30.08,30.06,16,8,6,10,7,,0.00,1,,331
2012-11-4,77,68,60,68,63,57,88,79,61,30.12,30.06,30.03,18,7,6,13,7,,0.00,2,,204
2012-11-5,78,74,69,72,68,63,94,83,66,30.04,29.99,29.92,12,7,6,15,9,,0.00,1,,238
2012-11-6,78,72,66,64,61,57,88,70,46,30.13,30.07,30.01,19,11,7,14,9,,0.00,,,323
2012-11-7,75,70,65,66,61,46,88,75,49,30.24,30.15,30.09,9,7,6,18,7,,0.00,3,Rain-Hail,339
2012-11-8,69,63,57,54,50,46,77,62,44,30.27,30.23,30.21,19,7,6,13,7,,0.00,3,,86
2012-11-9,73,66,59,57,55,52,88,71,50,30.19,30.12,30.09,12,7,6,10,5,,0.00,2,,244
2012-11-10,73,65,57,66,60,55,94,80,63,30.12,30.07,30.04,9,7,6,15,5,,0.00,3,,137
2012-11-11,76,72,69,64,63,61,78,73,59,30.06,30.02,29.98,12,7,6,24,17,34,0.00,2,,163
2012-11-12,75,72,69,68,65,63,88,79,69,30.14,30.09,30.04,7,6,6,24,20,32,0.00,4,,149
2012-11-13,73,70,68,65,61,55,83,71,54,30.16,30.11,30.09,12,7,6,23,17,,0.00,4,,128
2012-11-14,72,69,66,59,57,55,73,64,49,30.11,30.04,29.95,19,7,6,24,16,34,0.00,3,Rain-Hail,122
2012-11-15,70,64,58,60,58,55,94,78,57,30.01,29.90,29.83,9,6,2,24,14,37,0.47,4,Rain-Thunderstorm,100
2012-11-16,68,63,58,61,59,57,94,80,66,29.96,29.91,29.86,19,7,6,16,9,24,0.00,3,,34
2012-11-17,70,64,59,59,54,53,88,75,44,29.98,29.96,29.92,12,7,6,13,6,,0.01,2,,285
2012-11-18,70,64,59,61,56,53,94,79,60,29.95,29.92,29.86,12,6,2,15,5,,0.16,3,Rain-Hail-Thunderstorm,257
2012-11-19,68,62,56,61,57,54,100,86,58,29.87,29.83,29.80,12,6,1,15,6,,0.39,3,Rain-Thunderstorm,277
2012-11-20,68,64,60,59,57,54,88,79,64,29.98,29.91,29.86,17,7,4,17,10,,0.02,2,Rain-Thunderstorm,294
2012-11-21,70,65,60,61,58,55,94,82,62,30.07,30.00,29.95,12,6,1,17,10,28,0.12,4,Rain,312
2012-11-22,69,64,59,59,57,56,94,80,56,30.20,30.13,30.06,12,6,4,9,5,17,0.00,3,Rain,17
2012-11-23,70,63,56,61,58,55,100,85,61,30.22,30.19,30.18,9,6,3,7,3,,0.01,2,,311
2012-11-24,70,64,59,60,57,55,94,82,64,30.24,30.20,30.18,16,6,2,7,5,,0.01,2,,331
2012-11-25,69,63,57,57,55,52,94,78,49,30.23,30.19,30.15,12,6,3,7,4,,0.01,1,,333
2012-11-26,72,64,55,57,54,52,94,74,45,30.18,30.13,30.06,12,7,6,7,4,,0.01,1,,219
2012-11-27,72,66,60,64,61,55,88,78,65,30.06,29.95,29.80,9,7,6,18,10,31,0.00,3,,182
2012-11-28,73,68,62,63,57,45,73,66,47,29.77,29.67,29.62,9,6,4,24,20,38,0.00,1,,221
2012-11-29,64,62,59,47,43,39,59,50,37,29.73,29.70,29.68,12,7,5,21,18,36,0.00,2,,256
2012-11-30,61,57,53,50,44,41,82,56,40,29.80,29.71,29.65,19,7,2,22,12,33,0.20,3,Rain,255